Location: Madrid
(40.4000°N, 3.6830°W)
Time: 00:22:52
(UTC+02:00)

ISS - Pass Details

Date: 21 July 2019
Orbit: 409 x 418 km, 51.6° (Epoch: 22 July)

Event Time Altitude Azimuth Distance (km) Brightness Sun altitude
Rises 00:34:55 0° 293° (WNW) 2,352 0.8 -24.2°
Reaches altitude 10° 00:37:56 10° 323° (NW) 1,487 0.1 -24.5°
Maximum altitude 00:39:33 13° 352° (N) 1,323 -0.4 -24.6°
Drops below altitude 10° 00:41:11 10° 21° (NNE) 1,486 -0.5 -24.7°
Sets 00:44:12 0° 52° (NE) 2,347 0.2 -25.0°
